ATLAS 5 CENTAUR DEB, 46860

Orbit data source: Space-Track

ATLAS 5 CENTAUR DEB, 46860 is space debris in HEO originally from a launch on Wed, 17 Oct 2018 UTC launched from the Air Force Eastern Test Range (AFETR). Debris objects in space refer to the collection of defunct objects orbiting the Earth. Examples of debris include non-operational satellites, rocket bodies, and fragments generated from explosions, collisions, or faulty payload assembly.

Loading next visibility...
ATLAS 5 CENTAUR DEB details
Identifier
46860, 2018-079DR
Orbit
HEO
Last TLE update14 hours ago
Origin
Flag of USULA (US)
ManufacturerULA Decatur
MissionSpacecraft
Bus & MotorUnknown
MassUnknown
Launch date (UTC)
2018-10-17 (6 years ago)
Launch vehicleUnknown
Launch site
Air Force Eastern Test Range (AFETR)
Object type
Payload
Rocket body
Debris
Shape & HBRUnknown
Radar Cross SectionRCS unknown

Expand to show TLE details & history

TLE from 14 hours ago
0 ATLAS 5 CENTAUR DEB
1 46860U 18079DR  24360.89069207 -.00000100  00000-0  00000+0 0  9996
2 46860  12.6455 112.4601 5117798 160.1697 230.6370  1.65580734 25076
Epoch: 2024-12-25T21:22Z
Definitive object data (Epoch: 2024-12-25T21:22:35.794Z)
Latitude0.00001°
Longitude56.86139°
Altitude36,610.066 km
Speed2.31 km/s
True Right ascension07h 29m 33s
True Declination0° 00' 00"
Sunlit
Object was in daylight at TLE epoch
Visualization TLE readout
Latitude-2.03155°
Longitude47.72614°
Altitude38,508.41 km
Speed2.134 km/s
Apparent Right ascension06h 32m 10s
Apparent Declination-7° 41' 03"
Sunlit
Object is in daylight
Visualization observer readout
Local Sidereal Time10:17:15
Azimuth241.066° WSW
Elevation19.648°
Doppler factor1
Orbital elements
Apogee altitude39,251.622 km
Perigee altitude8,357.72 km
Semi-major axis30,182.808 km
Eccentricity0.5117798
Inclination12.6455°
RAAN112.4601°
Arg. of periapsis160.1697°
True anomaly199.81414°
Mean anomaly230.637°
Eccentric anomaly214.16848°
Mean motion0.41391 °/min
BSTARUnknown
Orbital period869.76 mins
Loading maneuver chart data...

ATLAS 5 CENTAUR DEB Visibility forecast

Observer location: undefined°, undefined

Span
Click to sort rows by Start time (UTC) header in descending order
Start Az.
Max El. time (UTC)
Max El. Az.
Max El.
End time (UTC)
End Az.
381 mins2024-12-26 10:55:59.541Z241.052° WSW2024-12-26 16:34:59.541Z195.811° SSW34.662°2024-12-26 17:16:59.541Z126.083° SE
|